GLOBALSTAR M001 1 25162U 98008A 26034.14709713 -.00000075 00000+0 16483-3 0 9995 2 25162 52.0058 20.9861 0001631 32.1139 48.3259 12.38226554272329 GLOBALSTAR M004 1 25163U 98008B 26034.15792020 -.00000078 00000+0 14234-3 0 9995 2 25163 52.0004 69.5056 0003521 87.7096 313.7083 12.63413886290883 GLOBALSTAR M002 1 25164U 98008C 26034.14275724 -.00000076 00000+0 16253-4 0 9994 2 25164 52.0039 21.1173 0001313 201.4239 158.6527 11.61515086210903 GLOBALSTAR M003 1 25165U 98008D 26033.96115697 -.00000213 00000+0 -13151-2 0 9992 2 25165 51.9860 249.3361 0008860 40.4887 98.8982 12.12030668261205 GLOBALSTAR M014 1 25306U 98023A 26034.10445691 -.00000045 00000+0 60151-3 0 9998 2 25306 51.9853 299.5856 0001777 61.8104 78.4249 11.65484142218095 GLOBALSTAR M006 1 25307U 98023B 26033.99121131 -.00000084 00000+0 -17874-3 0 9993 2 25307 51.9972 0.9688 0002919 162.5735 241.4425 11.58176368243572 GLOBALSTAR M015 1 25308U 98023C 26034.21123028 -.00000111 00000+0 -84491-3 0 9997 2 25308 51.9822 109.4819 0013390 127.6590 245.0585 11.48862090220636 GLOBALSTAR M008 1 25309U 98023D 26034.04038001 -.00000076 00000+0 16052-3 0 9992 2 25309 51.9950 248.7470 0002026 321.7109 203.3924 12.36080198266392 GLOBALSTAR M023 1 25621U 99004A 26034.12267735 -.00000054 00000+0 27676-3 0 9996 2 25621 52.0109 70.2300 0009359 276.7936 92.7373 12.62516341244904 GLOBALSTAR M040 1 25622U 99004B 26034.11247219 -.00000077 00000+0 14883-3 0 9992 2 25622 51.9920 74.7546 0001267 160.8079 228.7439 12.62028195244411 GLOBALSTAR M036 1 25623U 99004C 26034.10574063 -.00000057 00000+0 37617-3 0 9990 2 25623 52.0000 351.6570 0010713 131.5345 310.9319 11.86618226206395 GLOBALSTAR M038 1 25624U 99004D 26034.20811128 -.00000069 00000+0 21793-3 0 9999 2 25624 51.9968 126.2497 0002375 159.3901 218.4825 12.32540305230869 GLOBALSTAR M022 1 25649U 99012A 26034.15772623 -.00000110 00000+0 -27286-3 0 9996 2 25649 52.0065 23.0112 0002445 267.8398 173.8070 12.02509301204165 GLOBALSTAR M041 1 25650U 99012B 26034.00214723 -.00000054 00000+0 40774-3 0 9997 2 25650 52.0010 271.9270 0002191 65.9499 294.1566 11.96683488205915 GLOBALSTAR M046 1 25651U 99012C 26034.19559039 -.00000066 00000+0 24516-3 0 9999 2 25651 52.0083 324.6131 0002224 6.0401 137.6322 12.09417092211610 GLOBALSTAR M037 1 25652U 99012D 26033.90573219 -.00000096 00000+0 45593-4 0 9996 2 25652 51.9981 201.4223 0001748 11.2522 143.2630 12.62460913240416 GLOBALSTAR M045 1 25676U 99019A 26034.11895860 -.00000056 00000+0 33203-3 0 9992 2 25676 51.9995 7.0576 0000306 21.0666 61.3273 12.27072181221740 GLOBALSTAR M019 1 25677U 99019B 26033.59059558 -.00000050 00000+0 41503-3 0 9996 2 25677 51.9860 155.1450 0002120 85.9524 29.6385 12.13879526213123 GLOBALSTAR M044 1 25678U 99019C 26034.18951265 -.00000113 00000+0 -41026-3 0 9990 2 25678 51.9963 133.7376 0006908 124.4284 238.6166 11.90263366198839 GLOBALSTAR M042 1 25679U 99019D 26034.18912598 -.00000110 00000+0 -16934-3 0 9994 2 25679 52.0010 118.8221 0003253 68.6066 309.7728 12.22095472213508 GLOBALSTAR M025 1 25770U 99031A 26034.11768645 -.00000066 00000+0 57913-4 0 9997 2 25770 51.9854 344.3029 0001990 155.5039 296.3880 11.22561205507640 GLOBALSTAR M049 1 25771U 99031B 26034.07439884 -.00000033 00000+0 11135-2 0 9991 2 25771 51.9898 30.7661 0002854 51.9832 308.1222 11.12121600143117 GLOBALSTAR M047 1 25772U 99031C 26034.07331458 -.00000067 00000+0 73897-4 0 9992 2 25772 51.9866 5.6804 0016311 300.2601 59.6591 11.31931909497256 GLOBALSTAR M052 1 25773U 99031D 26033.60144240 -.00000093 00000+0 -91829-3 0 9996 2 25773 51.9857 137.2739 0003066 175.6711 197.9311 11.15063671504210 GLOBALSTAR M035 1 25851U 99037A 26034.00599410 .00000003 00000+0 25204-2 0 9999 2 25851 51.9925 260.2183 0013887 1.0839 147.8356 11.04541767121761 GLOBALSTAR M032 1 25852U 99037B 26034.05380970 -.00000134 00000+0 -21521-2 0 9999 2 25852 51.9957 69.3776 0012841 195.0824 164.9594 11.19068398160633 GLOBALSTAR M051 1 25853U 99037C 26033.47560788 -.00000088 00000+0 -39156-3 0 9994 2 25853 51.9762 205.3485 0001167 94.2536 265.8408 11.42200085158703 GLOBALSTAR M030 1 25854U 99037D 26034.04404745 -.00000110 00000+0 -73865-3 0 9990 2 25854 51.9911 355.4000 0003713 90.2850 269.8392 11.55108498176721 GLOBALSTAR M048 1 25872U 99041A 26033.63476295 -.00000080 00000+0 -27753-3 0 9999 2 25872 51.9354 148.9061 0013058 219.2581 153.9840 11.33861950151124 GLOBALSTAR M026 1 25873U 99041B 26034.16744046 -.00000164 00000+0 -36935-2 0 9995 2 25873 52.0043 15.3748 0001801 300.8454 143.0717 11.06840994174066 GLOBALSTAR M043 1 25874U 99041C 26034.07203645 -.00000015 00000+0 15761-2 0 9999 2 25874 51.9384 264.7148 0013598 349.3132 163.8385 11.25697539148871 GLOBALSTAR M028 1 25875U 99041D 26033.97282836 -.00000090 00000+0 63601-4 0 9998 2 25875 51.9598 224.8949 0062769 211.9442 147.7606 12.50595578219052 GLOBALSTAR M024 1 25883U 99043A 26033.99533197 -.00000011 00000+0 19153-2 0 9994 2 25883 51.9974 219.8367 0002673 103.5234 67.4855 11.10168605140497 GLOBALSTAR M027 1 25884U 99043B 26034.12163227 -.00000047 00000+0 62589-3 0 9995 2 25884 52.0234 304.0804 0021765 5.5297 354.5733 11.04373583166753 GLOBALSTAR M054 1 25885U 99043C 26034.15630534 -.00000078 00000+0 -16000-3 0 9991 2 25885 52.0165 32.5342 0004786 213.4299 228.6862 11.39223504145377 GLOBALSTAR M053 1 25886U 99043D 26034.16995223 -.00000059 00000+0 27279-3 0 9990 2 25886 52.0020 352.4141 0003543 109.2172 347.9572 11.27669729145509 GLOBALSTAR M058 1 25907U 99049A 26033.92824818 -.00000088 00000+0 -47713-4 0 9993 2 25907 51.9909 213.0300 0002183 21.8404 338.2524 11.93208074569080 GLOBALSTAR M050 1 25908U 99049B 26033.58562411 -.00000100 00000+0 -13094-3 0 9993 2 25908 51.9958 204.4065 0010055 127.1661 262.4512 12.07464356176025 GLOBALSTAR M033 1 25909U 99049C 26034.08844050 -.00000014 00000+0 74298-3 0 9998 2 25909 51.9917 58.9115 0014193 20.9125 339.2301 12.20301969563935 GLOBALSTAR M055 1 25910U 99049D 26034.06777821 -.00000070 00000+0 21095-3 0 9998 2 25910 52.0026 58.4721 0006805 248.9542 111.0582 12.29440202196688 GLOBALSTAR M057 1 25943U 99058A 26034.05900878 -.00000061 00000+0 29096-3 0 9992 2 25943 51.9991 52.9835 0002714 127.6122 232.4974 12.24832610195225 GLOBALSTAR M059 1 25944U 99058B 26034.17999219 -.00000019 00000+0 83745-3 0 9997 2 25944 52.0037 302.2585 0001091 63.4255 103.4449 11.99992289601779 GLOBALSTAR M056 1 25945U 99058C 26034.08253937 -.00000058 00000+0 34461-3 0 9992 2 25945 51.9976 298.5643 0000629 330.2174 167.5689 12.04784168190450 GLOBALSTAR M031 1 25946U 99058D 26033.91590538 -.00000053 00000+0 38220-3 0 9997 2 25946 51.9940 177.5218 0000301 307.9150 232.8605 12.16048318192615 GLOBALSTAR M039 1 25961U 99062A 26034.05311788 -.00000064 00000+0 22291-3 0 9996 2 25961 51.9850 285.5360 0003002 123.6629 236.4525 12.62340754209378 GLOBALSTAR M034 1 25962U 99062B 26034.21436213 -.00000072 00000+0 13500-3 0 9998 2 25962 51.9867 130.8453 0015067 118.5020 257.8442 11.79455535165652 GLOBALSTAR M029 1 25963U 99062C 26034.20634547 -.00000107 00000+0 -26026-3 0 9995 2 25963 51.9778 190.0214 0002392 183.2322 349.2598 11.99907979196858 GLOBALSTAR M061 1 25964U 99062D 26034.17954693 -.00000079 00000+0 20093-4 0 9995 2 25964 51.9819 318.0404 0006572 40.7365 103.5055 11.76777336148376 GLOBALSTAR M063 1 26081U 00008A 26033.98994701 -.00000086 00000+0 -55707-4 0 9999 2 26081 51.9920 223.7151 0005352 45.7382 122.1757 11.86180892184967 GLOBALSTAR M062 1 26082U 00008B 26033.56547644 -.00000191 00000+0 -66540-3 0 9997 2 26082 51.9848 138.2990 0006801 238.5906 135.1176 12.43480482525287 GLOBALSTAR M060 1 26083U 00008C 26034.20757340 .00000004 00000+0 94003-3 0 9992 2 26083 52.0020 129.1057 0003035 219.6805 155.9757 12.17674339180514 GLOBALSTAR M064 1 26084U 00008D 26034.16429648 -.00000039 00000+0 62378-3 0 9994 2 26084 52.0058 319.3636 0001675 118.6196 241.4805 11.88540095194564 GLOBALSTAR M065 1 31571U 07020A 26033.95450640 -.00000073 00000+0 17361-3 0 9994 2 31571 51.9872 243.8780 0010839 97.7411 51.1353 12.62019953862544 GLOBALSTAR M069 1 31573U 07020C 26034.15208618 -.00000042 00000+0 46701-3 0 9991 2 31573 52.0022 271.5006 0000937 210.4262 321.7841 12.23467729862396 GLOBALSTAR M072 1 31574U 07020D 26034.17430959 -.00000060 00000+0 32649-3 0 9995 2 31574 51.9931 97.0250 0001375 77.7335 317.1447 11.91655366859003 GLOBALSTAR M071 1 31576U 07020F 26034.10885615 -.00000105 00000+0 -13900-3 0 9993 2 31576 52.0079 303.7502 0000386 141.9226 7.4806 12.18264808523082 GLOBALSTAR M067 1 32263U 07048A 26034.13908171 -.00000073 00000+0 18399-3 0 9993 2 32263 51.9728 80.1386 0001627 119.9499 274.6683 12.40684266838154 GLOBALSTAR M070 1 32264U 07048B 26033.61914465 -.00000117 00000+0 -75899-4 0 9998 2 32264 51.9742 146.5056 0000640 108.1373 267.3181 12.62329790842774 GLOBALSTAR M066 1 32265U 07048C 26034.19311590 -.00000088 00000+0 51741-4 0 9999 2 32265 51.9590 82.5715 0005247 123.4352 277.8129 12.30384155843738 GLOBALSTAR M068 1 32266U 07048D 26034.20509193 -.00000069 00000+0 19200-3 0 9992 2 32266 51.9904 318.0286 0000722 324.3819 184.6551 12.62839406846748 GLOBALSTAR M079 1 37188U 10054A 26033.52726478 -.00000118 00000+0 -79857-4 0 9993 2 37188 52.0027 158.5938 0001079 97.2004 342.7364 12.62270161705541 GLOBALSTAR M074 1 37189U 10054B 26033.61837810 -.00000123 00000+0 -10653-3 0 9991 2 37189 52.0004 157.6042 0001000 114.9279 258.3175 12.62265617706169 GLOBALSTAR M076 1 37190U 10054C 26033.64480109 -.00000122 00000+0 -10132-3 0 9992 2 37190 52.0017 157.7158 0001172 110.1450 262.8222 12.62269991705883 GLOBALSTAR M077 1 37191U 10054D 26033.49310157 -.00000088 00000+0 -18114-3 0 9990 2 37191 51.9956 161.3783 0001534 108.4760 328.8102 11.68178301705402 GLOBALSTAR M075 1 37192U 10054E 26033.92814889 -.00000123 00000+0 -10815-3 0 9990 2 37192 51.9924 198.9812 0000942 93.2656 68.7903 12.62264029704983 GLOBALSTAR M073 1 37193U 10054F 26034.13201371 -.00000084 00000+0 11025-3 0 9990 2 37193 52.0061 112.3587 0000903 111.3123 256.0159 12.62269114707006 GLOBALSTAR M083 1 37739U 11033A 26034.07032537 -.00000094 00000+0 52388-4 0 9992 2 37739 51.9865 60.9575 0000596 101.2122 287.4266 12.62266888676010 GLOBALSTAR M088 1 37740U 11033B 26034.14033392 -.00000045 00000+0 32646-3 0 9992 2 37740 52.0239 326.8482 0000511 63.8417 42.7263 12.62260995671564 GLOBALSTAR M091 1 37741U 11033C 26034.16654632 -.00000073 00000+0 17039-3 0 9991 2 37741 52.0004 289.9353 0000845 58.3875 106.4355 12.62269350672350 GLOBALSTAR M085 1 37742U 11033D 26034.07511943 -.00000098 00000+0 31520-4 0 9998 2 37742 52.0100 241.3866 0001094 69.3598 100.2910 12.62268963672853 GLOBALSTAR M081 1 37743U 11033E 26034.02106582 -.00000087 00000+0 95343-4 0 9994 2 37743 51.9938 244.1390 0001110 81.7681 82.8355 12.62262147672995 GLOBALSTAR M089 1 37744U 11033F 26033.90026719 -.00000117 00000+0 -73115-4 0 9992 2 37744 51.9908 198.6902 0001053 111.2765 43.9407 12.62264116673820 GLOBALSTAR M084 1 38040U 11080A 26034.13119705 -.00000087 00000+0 93042-4 0 9994 2 38040 52.0012 65.3968 0000655 139.8473 284.8228 12.62267582651833 GLOBALSTAR M080 1 38041U 11080B 26034.09514623 -.00000078 00000+0 14504-3 0 9993 2 38041 52.0064 67.1788 0000262 39.3658 351.0120 12.62265952651954 GLOBALSTAR M082 1 38042U 11080C 26034.12086273 -.00000107 00000+0 -19037-4 0 9994 2 38042 52.0094 22.5866 0000414 33.5829 43.5418 12.62267083652664 GLOBALSTAR M092 1 38043U 11080D 26034.15996123 -.00000084 00000+0 10850-3 0 9998 2 38043 52.0080 112.8574 0000677 117.0807 257.8667 12.62269853651127 GLOBALSTAR M090 1 38044U 11080E 26034.14848207 -.00000109 00000+0 -27522-4 0 9991 2 38044 52.0147 16.4161 0000491 71.0023 10.4077 12.62266349652784 GLOBALSTAR M086 1 38045U 11080F 26034.17237659 -.00000101 00000+0 17597-4 0 9990 2 38045 51.9918 16.4911 0001448 105.2070 337.7482 12.62282280652739 GLOBALSTAR M097 1 39072U 13005A 26034.10367935 -.00000075 00000+0 16001-3 0 9992 2 39072 52.0053 291.4993 0000940 70.3183 289.7785 12.62268534599974 GLOBALSTAR M093 1 39073U 13005B 26034.15664429 -.00000071 00000+0 18266-3 0 9997 2 39073 52.0107 284.6351 0001185 65.5533 294.5457 12.62272488599933 GLOBALSTAR M094 1 39074U 13005C 26033.91913569 -.00000118 00000+0 -78203-4 0 9994 2 39074 51.9933 199.6065 0001194 86.7943 273.3061 12.62266834601518 GLOBALSTAR M096 1 39075U 13005D 26034.01136459 -.00000086 00000+0 99339-4 0 9998 2 39075 52.0052 248.0216 0001126 71.7064 288.3925 12.62262964600449 GLOBALSTAR M078 1 39076U 13005E 26034.06426170 -.00000019 00000+0 47169-3 0 9995 2 39076 51.9899 332.0562 0000986 4.6834 355.4041 12.62276499599077 GLOBALSTAR M095 1 39077U 13005F 26034.16995512 -.00000086 00000+0 10068-3 0 9990 2 39077 52.0107 329.1490 0000915 40.1910 319.9024 12.62268090598940 GLOBALSTAR M087 1 52888U 22064A 26034.18318222 -.00000086 00000+0 97539-4 0 9998 2 52888 51.9993 110.4229 0000749 98.2339 261.8613 12.62262694174214